User: anonymous   Login
Location: *
(50.5492°N, 7.7469°E)
Time: 23:47:40
(UTC+00:00)
Language:

ATLAS CENTAUR R/B - Orbit

View from above orbital plane
View from above orbital plane
View from above satellite
View from above satellite

Ground track
Ground track

The orbit data is extracted from the following two-line orbital elements,

1 38770U 12048N   19334.21656218 0.00001000  00000-0  63426-4 0    00
2 38770  64.6680  73.1491 0168144 205.1583 154.8417 14.97618060    02
Epoch (UTC): 30 November 2019 05:11:50
Eccentricity: 0.0168144
inclination: 64.6680°
perigee height: 457 km
apogee height: 691 km
right ascension of ascending node: 73.1491°
argument of perigee: 205.1583°
revolutions per day: 14.97618060
mean anomaly at epoch: 154.8417°
orbit number at epoch: 0

The dashed part of the orbit path shows where the satellite is in the earth's shadow,  

DLR